Tracking 27122 objects as of 25-Mar-2023
HD Live streaming from Space Station
objects crossing your sky now

OSCAR 27

Track OSCAR 27 now!
10-day predictions
OSCAR 27 is classified as:


NORAD ID: 18361
Int'l Code: 1987-080A
Perigee: 1,021.8 km
Apogee: 1,176.7 km
Inclination: 90.3 °
Period: 107.1 minutes
Semi major axis: 7470 km
RCS: 1.5699 m2 (large)
Launch date: September 16, 1987
Source: United States (US)
Launch site: AIR FORCE WESTERN TEST RANGE (AFWTR)
Your satellite tracking list
Your tracking list is empty




NASA's NSSDC Master Catalog

Two Line Element Set (TLE):
1 18361U 87080A   23083.39641313  .00000275  00000-0  44251-3 0  9991
2 18361  90.3429  43.6011 0103656 191.0124 168.8755 13.44615063741939
Source of the keplerian elements: AFSPC